Theta_e
303 304 303 303 304 304 304 304 304 304 305 305 305 306 306 306 307 307 306 307 308 308 309 310 309 309 309 309 309 308 308 308 308 308 308 307 307 307 308 310 310 310 311 311 312 312 312 313 313 314 314 313 313 312 312 312 313 314 316 316 314 313 310 307 308 310 311 309 307 306 306 307 304 302 302 301 302 300 300 299 298 300 300 298 298 298 299 301
304 304 304 304 304 304 304 304 304 304 304 305 305 305 306 306 307 307 306 306 307 308 309 309 309 309 309 309 309 308 308 308 309 308 307 307 307 307 308 310 310 310 311 311 311 311 312 312 312 312 312 311 310 311 312 311 311 311 313 313 310 308 305 303 305 307 309 308 306 304 304 305 303 302 303 303 303 303 302 300 298 298 298 298 298 299 300 301
304 304 304 304 304 304 304 304 305 304 305 305 305 305 306 307 307 307 306 306 306 307 308 309 309 308 308 309 309 309 308 309 309 307 306 307 308 307 308 309 310 310 311 311 311 311 312 311 312 311 311 310 309 310 310 310 310 309 311 312 307 306 304 302 304 304 305 306 306 304 303 302 300 301 303 304 304 303 303 301 299 298 298 299 299 300 300 300
304 304 304 304 304 304 305 305 305 305 305 306 306 306 306 307 307 307 307 306 306 306 307 308 309 309 309 309 309 309 308 309 307 305 306 306 307 307 307 308 310 310 310 311 311 311 311 311 311 311 311 309 308 309 308 307 309 307 307 309 306 305 305 302 302 302 303 304 305 304 304 302 300 300 302 305 306 303 301 300 300 299 298 298 299 299 299 298
304 304 304 304 304 304 305 305 305 305 306 306 306 306 306 307 307 307 308 308 307 307 307 308 308 309 309 309 309 308 310 310 306 305 306 306 307 308 307 307 309 310 310 310 311 311 311 311 311 311 309 308 309 308 306 305 306 304 302 304 304 305 304 300 300 302 303 304 304 304 304 301 299 299 300 303 305 302 299 298 298 298 298 298 298 298 298 298
304 304 304 304 304 305 305 305 306 306 306 306 306 306 307 307 308 308 308 309 309 308 307 307 307 308 308 308 309 309 309 308 305 305 306 306 307 308 307 307 308 309 309 310 311 311 311 311 311 309 307 306 307 306 305 304 306 305 301 301 302 303 302 299 300 302 302 303 303 302 301 300 300 299 298 299 299 297 297 297 298 298 298 299 298 298 298 297
304 304 304 304 305 305 306 306 306 306 306 306 306 307 307 308 308 308 309 309 310 309 309 308 307 308 308 309 310 309 306 305 304 305 306 306 307 308 308 308 308 309 309 310 311 310 310 311 310 308 307 307 305 305 305 305 305 304 301 301 300 300 300 299 300 301 302 302 300 300 300 301 302 300 298 297 296 296 297 297 298 298 298 297 297 296 296 295
304 304 304 304 305 305 305 306 307 307 307 306 306 307 307 308 308 308 309 309 309 309 309 309 308 308 309 309 311 309 304 304 305 305 306 307 307 308 308 308 309 309 309 309 309 309 310 309 308 308 308 306 305 305 305 304 304 303 301 301 300 299 299 299 300 301 300 300 299 300 300 300 300 299 298 297 296 296 297 296 296 296 296 295 295 294 293 293
304 304 304 305 305 305 305 306 307 307 307 306 307 307 307 308 308 308 309 309 309 309 309 309 309 309 309 309 312 310 304 304 305 305 306 306 307 307 308 308 308 308 308 308 308 309 309 308 307 307 306 304 304 305 305 305 303 302 301 301 300 300 299 299 300 299 299 299 299 301 300 299 299 299 298 296 295 296 296 295 295 295 294 294 294 293 293 293
304 304 304 305 305 305 305 306 307 308 307 306 307 308 307 307 307 307 308 309 309 309 309 309 310 310 310 311 312 309 304 304 305 305 306 306 307 307 307 307 307 308 308 308 308 308 309 308 307 307 305 304 304 304 305 304 302 301 301 301 301 301 300 300 300 299 299 299 300 301 300 299 299 300 299 296 295 295 295 295 294 294 294 294 295 295 295 295
304 304 304 305 305 305 305 306 307 308 307 307 307 308 307 307 307 307 307 309 310 310 310 310 310 311 312 312 309 305 304 304 304 305 306 306 307 307 306 307 307 308 308 308 307 307 307 307 306 306 305 304 303 302 302 302 301 301 302 302 302 302 301 300 300 300 300 300 299 300 301 300 299 299 298 296 296 296 296 295 295 295 295 295 296 296 296 296
304 304 305 305 305 305 305 306 307 308 308 307 307 308 308 307 308 308 308 308 309 310 310 310 310 311 313 311 305 304 304 304 304 305 305 306 306 306 306 306 306 307 307 307 306 306 306 306 306 306 304 304 303 302 301 300 301 301 303 303 303 303 302 300 300 300 300 300 299 299 302 301 298 297 296 295 296 296 296 296 295 295 296 296 296 296 296 296
305 305 305 305 305 305 305 305 307 309 308 307 307 308 308 308 308 309 309 309 309 309 309 310 310 311 312 308 303 304 304 304 304 304 305 305 305 305 305 305 306 306 306 306 305 305 306 305 306 305 303 303 302 302 302 300 301 302 303 303 304 305 302 300 300 300 300 300 298 299 303 301 298 297 295 295 296 296 296 296 296 296 296 296 296 296 296 296
305 305 305 305 305 305 305 306 307 309 309 307 307 308 309 308 309 309 309 309 309 309 310 310 310 310 309 305 303 305 304 304 304 304 305 305 304 305 305 305 305 305 305 305 304 304 304 305 305 304 302 302 301 302 302 302 303 302 302 303 305 306 303 300 299 300 301 300 298 300 303 301 298 297 295 296 297 296 296 296 296 296 296 296 297 297 297 297
306 306 306 306 305 306 305 305 307 309 309 308 307 309 309 309 309 309 309 309 309 309 310 310 310 309 307 304 304 305 305 305 304 304 304 304 305 305 304 305 305 305 305 305 305 304 305 305 305 303 302 302 302 304 304 304 303 302 304 305 304 305 303 300 299 299 299 299 299 301 303 301 298 297 295 296 296 295 297 297 296 297 297 297 298 298 298 298
306 306 306 306 306 306 306 305 307 309 309 308 308 308 308 309 308 308 308 309 309 309 309 309 309 309 307 305 305 305 305 305 304 304 304 304 305 304 305 305 305 305 305 305 305 305 306 306 305 302 302 303 302 304 306 306 305 304 305 305 303 303 303 301 300 299 298 299 300 302 303 300 298 297 295 295 296 296 297 297 297 297 297 298 298 298 298 299
306 306 306 306 306 306 306 306 307 309 309 308 309 308 307 308 307 307 308 308 309 309 309 309 309 309 307 305 305 304 304 304 304 304 304 304 305 304 305 305 305 305 305 305 306 306 306 305 305 303 303 303 301 304 308 308 307 305 304 303 301 301 302 302 301 299 299 300 300 301 300 298 297 296 295 295 296 296 297 297 297 298 298 298 298 298 298 298
307 306 306 306 306 306 306 306 306 308 309 309 309 309 309 308 309 309 308 309 309 309 310 309 309 310 307 305 304 303 303 304 305 305 305 304 305 305 305 305 305 305 306 306 306 305 305 304 305 305 304 303 301 303 308 306 304 304 304 304 302 301 302 302 301 299 299 300 300 300 299 297 297 297 296 296 296 297 297 297 298 297 297 297 297 297 297 297
307 307 306 306 306 306 306 306 306 307 309 309 309 309 309 309 310 310 309 310 309 309 309 307 307 308 306 304 304 304 304 304 304 305 305 305 305 305 304 305 305 305 306 306 305 303 304 304 304 305 303 301 299 299 302 301 301 302 301 303 303 302 301 300 299 298 297 299 299 299 299 298 297 297 297 296 296 298 298 298 298 297 297 297 297 297 297 297
307 307 307 307 307 306 306 306 306 306 307 308 308 309 309 310 310 308 306 307 306 305 306 305 304 305 304 304 304 305 305 304 305 304 305 306 305 305 305 305 306 305 304 304 304 303 304 304 302 301 300 298 297 296 297 297 298 300 301 302 302 302 301 299 299 298 297 299 298 297 298 298 298 298 297 297 297 298 298 298 297 297 297 297 297 297 296 296
308 308 307 307 307 306 306 306 306 306 306 307 307 308 309 310 310 307 304 304 304 304 304 304 304 304 304 304 304 305 305 305 305 305 305 305 306 306 305 305 307 305 302 300 303 304 304 303 300 298 297 296 296 295 295 297 298 300 301 302 302 302 301 298 299 298 297 299 299 297 299 299 297 297 297 297 298 298 298 298 297 297 297 297 296 296 296 296
308 308 308 308 307 307 306 306 307 308 307 307 307 309 310 310 310 309 306 305 303 304 304 304 305 304 304 304 304 304 305 304 305 305 305 305 305 305 303 304 305 304 303 303 304 305 304 302 299 297 296 296 296 295 297 299 299 300 301 302 303 301 300 299 299 298 298 300 299 298 299 299 297 297 297 297 298 297 296 296 296 296 297 297 296 296 296 296
308 308 308 308 308 307 307 306 307 309 309 309 309 310 310 309 308 308 308 307 305 304 304 305 305 304 304 304 304 304 303 302 302 303 304 305 304 303 302 303 303 302 303 304 306 306 304 301 298 296 296 297 298 297 298 300 301 301 302 303 303 300 301 302 300 298 298 299 299 299 300 299 297 297 297 297 297 296 296 295 295 296 296 296 296 295 295 295
308 308 308 308 308 308 307 307 307 308 309 309 310 309 308 308 307 308 307 306 306 304 304 304 304 304 304 304 304 304 303 301 300 301 303 304 303 302 302 301 302 302 301 302 303 303 301 299 296 296 297 297 299 299 299 301 303 301 300 302 302 300 300 301 300 299 299 299 298 299 301 300 298 298 298 297 296 296 296 296 296 296 296 296 296 296 295 295
308 308 308 308 309 308 308 307 307 307 307 307 308 308 308 307 306 307 307 308 308 306 305 305 304 304 303 303 304 304 303 302 300 301 302 303 303 303 301 300 302 301 300 302 302 300 299 297 296 297 298 298 300 300 298 301 303 302 299 298 299 299 299 299 299 300 301 302 299 298 303 304 299 298 298 297 297 297 297 297 297 297 296 296 296 296 295 295
307 307 308 308 308 309 308 307 307 307 306 306 306 307 307 307 306 306 308 313 311 306 306 306 304 305 304 303 304 305 306 304 301 301 302 302 302 302 302 301 301 301 299 300 301 301 299 297 296 297 298 300 301 300 297 298 304 304 298 296 297 297 298 299 299 301 304 303 298 297 302 304 301 299 298 297 297 297 297 297 297 297 296 296 296 296 295 295
307 307 307 308 308 309 308 308 307 307 306 306 305 306 306 306 306 305 309 316 311 305 306 306 305 305 304 303 303 306 308 305 302 302 301 302 302 302 303 302 301 301 298 299 303 302 300 299 298 298 299 301 301 300 297 297 302 303 297 295 297 297 299 299 300 302 302 301 299 298 300 302 303 300 297 296 297 297 297 297 297 297 297 296 296 296 295 295
307 307 307 308 307 308 308 308 308 307 307 307 306 305 305 305 305 305 312 317 309 304 305 305 304 304 304 303 303 303 303 303 303 302 301 302 302 301 302 300 300 301 297 301 305 301 298 299 298 298 300 301 300 298 297 296 300 300 296 296 297 297 299 299 301 302 300 301 303 301 299 302 304 300 296 296 297 297 298 298 298 297 297 297 296 296 296 295
306 306 307 307 307 307 307 307 308 308 308 308 306 305 305 305 305 307 315 314 306 304 304 304 305 304 303 304 303 301 301 301 302 301 300 301 302 302 301 299 300 301 300 302 304 300 298 298 296 297 299 299 298 297 296 297 298 297 296 297 297 297 298 299 301 302 300 302 304 301 298 302 304 301 298 297 297 299 299 298 298 298 297 297 296 296 296 296
306 306 306 306 306 306 307 307 307 308 308 308 308 306 305 306 308 312 316 312 306 304 303 304 305 303 303 306 305 301 301 300 299 300 301 301 301 301 300 299 301 301 301 301 301 298 297 297 297 297 297 297 297 297 296 296 297 296 297 299 299 298 299 299 300 301 303 304 303 299 297 300 303 303 301 300 299 299 299 298 298 297 297 297 296 296 296 296
305 305 305 306 306 306 306 307 307 308 308 308 308 306 306 308 314 318 313 307 305 305 303 304 302 300 302 305 304 301 301 301 298 300 302 300 300 300 300 301 301 303 304 303 301 299 298 299 298 297 296 296 297 297 296 295 296 297 299 300 301 301 300 301 301 301 304 305 300 297 296 298 302 303 301 300 298 298 298 298 298 298 297 297 297 296 296 296
305 305 305 306 305 305 306 306 307 308 307 309 308 306 309 313 315 314 309 305 305 305 304 303 301 299 301 302 301 300 301 301 299 299 299 299 299 297 298 299 299 303 307 304 302 302 300 299 298 297 296 296 298 300 299 297 298 299 299 301 304 304 303 303 303 302 303 303 298 296 296 298 302 302 300 300 299 298 298 298 298 298 297 297 297 296 296 296
305 305 305 305 305 305 305 306 307 307 307 309 307 307 316 320 312 307 306 307 305 301 300 301 300 299 300 303 301 298 299 300 300 300 298 298 299 297 298 297 295 301 305 302 302 304 303 300 298 299 298 296 297 300 302 301 300 300 299 301 304 304 303 304 303 302 303 302 297 294 296 300 302 301 299 298 298 297 297 297 297 297 296 296 296 296 296 296
304 305 305 305 305 305 305 305 306 307 307 307 307 311 319 317 308 305 306 305 301 298 300 300 300 300 301 302 299 297 300 300 299 301 300 299 301 299 299 299 296 298 300 301 301 302 305 304 300 298 298 297 297 297 298 298 298 299 297 299 303 302 302 304 303 302 302 301 298 296 297 301 302 300 298 297 296 296 296 296 296 296 296 296 296 296 296 296
304 305 305 304 305 304 305 305 305 307 306 306 312 319 318 311 306 307 308 303 299 300 300 298 301 304 302 300 297 296 300 300 298 300 300 299 300 298 298 298 297 296 298 302 301 299 303 304 298 296 296 296 296 295 294 296 299 298 296 299 302 300 300 300 299 299 298 298 299 298 299 300 299 298 297 296 296 296 296 296 296 296 296 296 296 296 296 296
304 305 304 305 305 304 305 305 305 307 306 308 319 320 311 307 304 305 306 302 300 301 301 301 303 305 304 302 300 298 298 299 299 300 300 297 297 297 296 296 295 295 297 301 301 299 303 302 297 296 296 295 295 295 294 296 300 300 299 300 298 295 296 298 296 293 294 298 300 298 300 301 299 298 297 296 297 297 297 297 296 296 296 296 296 296 296 296
304 304 305 304 304 304 306 305 306 308 305 310 321 313 302 301 299 299 301 299 299 299 302 306 303 302 305 304 302 301 299 299 300 302 301 298 298 298 296 295 295 294 295 297 298 298 301 303 298 295 298 295 294 295 294 294 296 300 301 298 294 293 295 298 299 297 298 301 301 298 299 300 301 300 298 297 298 298 298 298 297 297 297 297 297 297 296 296
304 304 305 304 304 305 305 306 307 308 306 312 317 306 298 299 297 296 297 297 297 298 302 307 303 299 304 305 303 300 300 303 302 301 301 300 300 298 295 296 295 294 293 295 298 296 297 303 300 294 297 296 293 296 298 296 295 297 298 296 295 299 300 299 300 300 301 302 301 299 298 298 300 301 300 299 299 299 298 298 298 298 298 297 297 297 296 295
304 304 304 304 305 305 306 307 306 306 311 315 313 305 299 298 296 296 297 296 296 299 302 304 302 300 301 302 302 299 299 302 302 300 301 301 300 297 295 295 295 295 294 294 297 296 294 302 303 296 294 295 296 298 300 300 297 296 297 296 295 298 299 299 298 298 300 302 301 300 300 301 301 300 300 300 299 299 299 298 298 298 297 297 296 296 296 295
304 304 304 304 305 305 306 306 306 309 314 311 306 302 298 297 297 296 297 297 295 298 301 301 301 303 302 300 299 299 299 300 299 300 301 299 299 298 294 295 295 295 295 294 295 295 294 299 304 299 295 296 299 298 297 298 298 297 299 299 297 296 296 297 295 294 297 300 299 299 301 303 301 298 299 300 299 298 298 298 298 298 297 297 296 295 295 295
304 304 305 304 305 305 305 307 306 303 305 302 298 299 297 297 298 296 296 296 295 296 298 298 299 302 303 302 299 298 299 300 299 299 300 298 300 298 295 294 294 294 295 296 296 296 296 298 301 301 300 300 298 293 292 293 294 296 298 298 298 297 297 300 299 293 293 296 297 296 300 303 300 297 297 298 297 297 296 296 296 297 296 296 296 295 295 295
304 305 305 304 305 305 305 308 299 295 301 301 297 298 298 297 297 296 295 295 295 296 296 297 298 298 300 302 300 298 299 300 299 299 299 298 298 297 294 293 293 293 295 296 296 295 295 296 300 301 299 296 294 290 289 290 289 292 294 294 296 296 297 302 302 297 294 293 293 294 298 301 298 295 296 296 296 296 295 295 295 296 296 295 295 296 295 295
303 304 304 305 306 304 306 310 301 296 298 297 294 295 296 296 296 296 295 295 296 296 298 298 297 297 298 297 299 300 300 300 299 298 298 297 295 295 293 293 294 293 294 296 296 294 294 296 300 302 297 292 291 289 288 288 289 293 294 292 294 295 296 297 297 296 295 293 294 295 299 301 298 295 295 295 295 295 296 295 295 295 295 295 295 296 296 296
303 304 304 305 306 306 310 315 310 301 296 295 295 295 295 295 295 296 296 296 296 296 298 299 296 297 296 293 296 299 297 299 300 296 296 297 296 294 293 293 294 294 294 296 296 295 296 297 299 303 303 300 298 296 294 292 292 296 296 292 291 292 293 294 293 294 296 295 295 298 301 302 299 295 295 296 296 296 297 296 296 295 295 295 295 296 296 296
304 304 304 304 305 306 308 308 307 304 299 299 300 297 297 296 295 295 296 296 295 295 297 298 295 295 294 292 295 296 294 298 300 297 295 296 295 293 292 293 294 294 294 294 294 295 296 297 298 302 306 306 305 304 302 299 295 295 295 292 291 292 294 296 295 296 298 295 293 297 301 302 300 297 298 298 298 298 298 297 297 296 296 296 295 296 296 296
304 305 305 306 305 304 303 301 301 303 301 303 303 298 298 299 296 295 295 295 295 295 296 296 294 295 295 295 298 299 295 295 297 298 297 297 295 293 292 293 293 293 293 293 293 294 295 295 296 300 303 303 304 303 298 297 296 296 295 293 293 292 293 295 296 297 298 294 294 297 299 300 300 299 299 299 299 299 298 298 297 296 296 296 295 296 296 296
303 304 305 307 306 304 303 300 299 300 301 304 304 299 299 300 296 295 295 295 296 295 295 295 294 296 299 298 301 301 297 295 296 298 298 296 294 292 292 294 294 294 295 294 293 293 295 296 295 297 301 299 298 298 295 294 296 296 296 295 294 292 292 294 297 297 296 296 299 298 295 296 299 299 299 299 299 299 298 297 297 296 295 296 295 296 296 297
304 302 300 303 306 305 305 303 299 298 298 301 301 298 299 300 298 298 297 295 295 295 296 298 296 297 299 298 301 302 299 299 299 298 297 295 293 292 292 292 293 294 295 294 292 292 296 297 293 294 299 297 295 295 294 293 294 294 294 295 295 293 293 294 296 296 295 298 301 298 294 296 298 298 298 299 298 298 297 296 296 295 295 295 295 295 296 297
303 302 300 301 303 301 301 301 298 299 299 300 300 299 300 302 300 298 296 295 296 295 296 300 299 297 296 296 300 303 301 301 302 300 299 298 295 294 294 294 293 293 293 293 291 291 294 296 293 292 297 298 294 292 291 291 293 293 294 294 295 294 293 294 296 295 294 296 298 297 296 296 297 297 298 298 298 297 296 295 295 296 296 295 295 295 296 296
302 303 301 302 301 297 298 298 298 302 302 301 303 300 298 301 301 296 294 296 299 297 296 300 299 296 295 296 299 302 300 300 301 299 298 299 298 296 296 297 295 292 292 292 291 290 293 296 293 291 297 299 294 290 290 292 293 294 294 293 293 294 293 293 294 294 294 294 295 295 295 295 296 297 297 296 296 296 296 296 296 296 296 295 295 296 296 296
301 302 301 303 303 298 298 297 297 303 305 303 305 302 298 300 300 297 295 295 297 298 296 298 298 295 294 296 299 300 297 296 298 297 295 297 298 296 295 296 296 295 294 292 291 292 293 294 292 292 299 301 295 293 294 292 291 293 296 296 293 292 293 293 293 293 294 295 294 294 295 297 298 298 297 296 296 296 297 297 296 296 296 295 296 296 296 296
301 301 301 304 305 299 298 297 297 303 307 303 301 300 299 299 297 297 300 297 294 296 296 295 297 297 297 297 298 297 296 295 296 295 295 295 295 294 295 294 294 295 295 293 292 291 291 294 294 294 300 301 296 295 295 295 298 301 302 301 297 292 292 293 293 293 293 295 296 296 299 300 299 298 297 298 298 298 298 298 296 296 296 296 296 296 296 295
Wind_Speed
12 12 12 11 11 10 10 11 11 12 12 12 13 14 18 20 20 19 19 19 18 19 20 20 15 12 13 17 24 30 35 38 42 46 43 36 28 18 14 15 17 17 16 15 14 13 12 14 14 16 17 19 19 16 15 16 15 10 5 8 7 6 6 5 6 5 4 6 6 5 3 6 7 6 7 8 12 14 15 15 14 15 16 16 14 12 10 8
12 12 11 11 10 10 10 10 9 10 10 11 11 12 15 18 20 19 17 16 16 17 18 21 17 10 8 9 13 23 32 38 41 46 41 29 25 20 13 14 16 16 15 14 13 11 11 14 13 12 18 22 19 16 16 17 18 12 4 8 7 5 6 5 5 5 5 8 9 9 7 8 7 3 4 6 9 12 13 13 12 15 14 13 12 10 8 6
12 12 11 11 10 10 10 10 10 9 9 10 10 11 13 16 19 19 16 14 14 15 16 20 21 11 5 4 5 12 24 36 42 40 34 28 27 23 14 13 14 15 15 16 14 12 14 18 15 16 26 25 18 20 21 15 15 12 7 9 6 6 8 8 8 7 7 8 10 10 10 13 9 4 4 8 12 12 11 9 8 10 10 11 10 8 7 5
12 12 11 11 10 10 10 11 11 10 9 10 10 10 11 14 17 19 17 14 12 13 13 17 23 20 10 1 5 5 13 28 36 32 30 30 26 24 18 11 12 13 12 13 14 14 17 19 18 24 30 20 18 26 21 14 11 9 8 10 6 6 8 8 8 8 8 8 10 9 10 13 11 9 6 4 8 11 10 8 7 8 8 10 9 7 6 5
12 11 11 11 10 11 11 12 11 10 9 10 11 11 10 13 15 17 18 16 13 10 10 12 22 29 23 11 6 4 3 9 21 27 28 30 25 24 20 12 11 10 9 10 11 14 16 17 21 26 23 12 14 21 14 12 15 11 9 9 7 6 7 6 6 8 9 9 11 10 9 8 9 14 13 8 8 7 7 7 7 8 8 8 7 7 6 5
11 11 11 10 11 12 12 12 11 10 9 9 11 10 10 12 13 17 18 19 17 13 9 5 12 23 29 28 18 14 13 6 14 25 27 27 23 23 21 15 13 10 7 7 8 11 14 18 22 20 17 13 15 14 9 10 11 11 9 10 10 9 10 7 8 10 8 9 10 10 10 10 13 14 15 17 14 7 8 8 8 9 8 8 7 6 6 5
11 11 11 11 12 13 14 14 12 11 10 9 10 10 11 13 15 17 19 20 19 17 14 6 6 9 17 26 28 33 32 18 16 23 25 24 22 22 20 14 14 13 10 10 13 15 19 25 26 20 17 16 16 17 20 22 18 17 11 10 14 13 14 12 15 17 15 16 13 11 11 10 12 11 12 16 12 9 11 10 9 9 8 8 7 6 6 6
11 11 11 12 13 14 15 16 14 12 11 9 9 10 11 14 17 19 20 20 19 19 18 13 8 5 7 10 22 38 33 21 20 22 22 22 20 20 18 12 10 10 10 13 15 16 21 28 25 18 17 13 13 16 21 24 21 17 11 9 11 11 13 14 17 19 18 19 14 15 17 13 14 14 14 13 9 11 11 9 9 8 8 7 7 7 8 8
11 11 11 12 13 14 16 18 18 14 11 10 10 9 10 11 14 16 19 18 18 19 19 19 14 10 9 4 13 27 22 16 19 20 20 21 20 18 17 16 13 8 10 10 9 11 16 20 18 18 20 14 11 10 8 9 10 12 14 12 12 11 11 12 14 16 15 13 10 14 16 11 12 12 13 10 8 10 8 7 8 7 7 8 8 8 8 8
10 10 10 11 12 13 17 20 20 16 12 10 11 10 7 7 9 12 15 16 16 17 19 20 19 19 16 17 23 18 11 14 16 16 18 19 19 19 19 19 16 14 17 17 16 20 23 25 27 30 28 16 12 12 10 11 12 17 19 19 18 16 13 10 10 11 12 11 9 12 13 8 5 4 6 5 5 7 5 5 7 7 7 8 9 8 8 8
10 9 9 10 11 12 16 19 19 16 12 10 11 10 7 6 8 9 10 15 19 19 18 14 15 20 20 29 35 17 9 14 13 14 17 18 19 22 24 20 16 16 19 23 27 29 32 30 25 22 19 18 19 20 20 21 20 19 18 18 17 18 18 15 9 7 5 7 8 9 14 12 8 5 4 3 2 5 4 4 6 7 7 8 8 8 8 7
9 8 8 9 10 11 13 16 18 16 11 9 9 10 9 7 9 11 9 8 11 15 18 16 13 12 18 33 34 17 12 12 10 13 15 17 22 23 26 24 20 19 16 22 25 23 21 14 10 13 15 19 18 15 16 17 15 11 8 10 9 12 17 17 12 9 2 4 7 3 8 10 10 7 5 3 2 4 4 4 5 7 7 8 7 8 8 7
9 8 8 8 9 10 11 12 15 16 11 7 8 9 9 8 8 10 11 8 6 6 9 16 17 16 22 28 24 15 12 11 8 10 12 17 21 21 23 26 26 26 22 24 23 17 15 14 19 27 23 15 11 12 15 10 7 6 3 3 4 6 9 14 14 11 2 5 10 2 4 6 6 7 5 2 2 3 4 4 5 7 8 8 8 8 8 8
9 8 8 8 8 8 9 10 13 16 12 6 7 9 9 10 11 10 12 11 12 12 8 8 11 20 31 24 17 16 12 10 6 6 10 14 17 19 21 23 26 28 28 30 29 27 27 28 33 32 24 19 16 16 13 5 4 3 1 1 1 1 4 8 14 13 2 4 11 3 3 4 4 8 6 1 2 3 3 4 5 7 8 9 10 10 9 8
9 8 8 7 7 7 7 8 11 15 15 8 6 9 11 12 13 14 14 12 14 15 14 13 7 14 28 21 15 16 10 9 9 8 9 9 11 14 14 17 20 22 25 26 27 27 25 27 31 26 18 19 16 11 7 3 3 2 1 2 3 2 2 4 10 15 5 4 10 4 2 5 5 8 5 2 3 2 3 5 6 9 10 11 11 11 10 7
9 8 8 7 6 6 6 7 9 15 19 14 7 7 7 6 5 8 10 14 17 15 16 21 19 20 21 13 15 18 14 13 13 11 8 5 7 8 9 11 14 15 17 19 20 18 16 20 25 22 13 9 4 2 4 4 4 3 3 3 3 2 2 1 5 15 11 4 7 6 3 5 3 6 4 3 3 1 3 5 8 11 12 13 13 12 11 9
9 9 7 7 6 5 6 6 8 14 20 22 17 9 4 2 2 4 3 7 9 13 17 17 16 21 20 11 14 21 23 18 12 10 9 6 5 6 8 9 11 11 10 11 13 13 18 19 15 13 12 8 3 2 2 4 5 4 3 4 3 3 2 1 2 11 15 5 6 8 6 4 3 4 3 3 3 2 4 7 9 12 13 14 15 15 15 14
10 9 8 7 7 6 6 5 8 12 18 23 25 23 19 14 8 6 6 2 0 6 15 16 10 9 13 15 14 19 24 21 12 8 10 11 7 5 5 4 3 4 5 8 10 12 17 14 6 5 8 9 6 4 2 4 4 2 3 2 3 3 3 4 2 7 13 7 8 8 8 6 4 3 3 3 3 4 6 8 9 11 12 13 14 15 16 16
12 10 9 8 7 6 5 5 7 9 11 13 15 18 22 24 23 23 23 20 16 10 7 17 17 7 5 15 13 14 23 23 17 9 5 9 10 8 7 4 3 5 7 7 9 12 10 6 4 4 6 8 7 7 4 3 3 3 3 2 3 4 4 3 3 6 7 6 9 7 7 6 4 4 3 3 5 6 7 8 9 9 10 12 13 14 14 14
13 11 10 9 8 7 6 6 5 7 8 7 5 5 7 12 17 23 34 38 33 22 12 14 18 12 10 17 14 12 19 23 22 16 6 4 6 7 8 8 11 14 11 3 5 10 8 7 7 5 4 6 5 4 1 1 2 3 3 4 4 3 4 2 3 5 4 2 6 5 5 6 4 4 3 2 4 6 7 8 8 8 9 11 12 13 13 12
14 13 11 11 10 9 7 6 5 4 6 8 7 2 0 4 6 11 26 33 28 26 24 20 18 14 13 20 20 13 16 22 24 22 15 6 3 3 6 7 9 11 8 2 2 6 8 9 6 5 4 5 4 1 1 2 1 2 3 4 3 2 4 2 3 5 3 1 3 2 3 6 4 3 4 3 3 5 5 5 6 8 9 10 11 11 11 11
14 13 12 11 11 10 8 6 6 5 5 7 7 5 7 12 14 16 20 19 19 22 23 23 23 19 12 16 21 19 20 23 24 25 21 17 14 10 11 12 8 6 5 1 2 5 8 8 5 5 3 3 1 0 1 3 2 1 1 2 3 2 2 2 2 6 3 1 2 1 1 4 2 2 3 3 3 3 3 3 6 6 7 7 8 10 10 11
13 12 12 11 10 11 9 8 10 10 9 9 9 12 15 17 17 18 19 15 13 16 17 20 24 24 17 12 14 21 28 24 22 26 23 20 22 20 19 16 10 8 8 7 3 5 7 6 6 5 2 2 3 3 1 2 3 2 1 1 2 1 1 2 3 5 5 3 2 2 1 2 2 1 2 2 2 1 1 3 5 5 5 5 7 8 9 10
12 12 12 11 10 10 10 10 10 9 11 11 11 14 15 14 13 12 13 11 7 10 14 16 19 23 21 15 10 15 26 24 21 26 25 17 14 15 15 11 9 10 11 12 11 11 8 5 6 3 2 1 3 5 3 1 2 4 4 2 2 1 2 2 2 1 2 4 3 2 3 3 3 3 3 2 1 1 0 1 2 2 3 4 6 7 8 10
11 11 11 10 9 8 8 9 8 6 8 7 8 11 12 9 7 5 5 6 4 7 12 12 14 18 21 19 9 6 16 22 23 25 24 19 10 6 8 6 7 6 4 7 11 11 8 6 5 1 1 2 2 7 7 4 0 3 3 3 2 2 2 2 1 2 3 3 3 2 3 2 4 4 4 2 2 3 1 2 2 0 1 3 4 6 8 10
10 10 10 10 9 7 6 7 7 6 5 4 7 9 8 5 2 3 2 2 3 6 10 8 9 13 18 21 11 2 5 12 18 22 21 19 12 5 4 5 5 4 2 2 5 6 5 5 3 0 0 1 3 6 6 5 2 1 3 2 1 1 2 2 2 3 1 2 2 1 3 1 3 5 5 3 3 4 3 4 4 2 2 3 5 6 8 10
10 10 9 9 9 8 7 6 7 5 3 3 5 6 6 6 3 0 0 1 3 4 7 7 7 9 13 20 15 3 1 5 9 18 20 19 17 10 6 4 3 4 1 2 3 3 3 5 5 3 1 1 4 5 5 5 3 2 2 1 2 2 2 2 4 2 1 1 2 1 2 3 1 2 3 2 4 6 5 6 6 5 4 4 5 7 9 11
11 10 10 9 9 8 8 7 6 5 3 1 3 4 5 5 4 2 1 2 3 3 5 5 5 7 8 15 21 13 7 7 5 12 17 16 18 16 13 7 3 5 1 3 3 3 3 6 7 6 4 4 4 4 4 5 2 3 3 1 0 1 1 2 3 2 2 1 2 3 3 4 1 3 3 2 5 8 7 7 7 6 5 4 5 6 9 11
10 10 10 9 10 10 9 9 7 5 5 1 1 3 4 3 3 2 1 1 2 2 3 4 4 8 7 8 19 19 13 12 8 10 15 14 13 14 13 9 7 9 9 6 5 4 1 4 4 5 5 4 4 3 3 3 3 3 2 1 2 2 1 1 1 2 1 2 0 4 5 4 1 3 3 3 4 6 5 5 6 6 6 5 5 7 10 13
10 9 10 9 10 10 9 9 8 7 7 3 1 4 5 3 3 1 2 1 1 2 4 5 4 10 10 3 9 16 12 11 11 9 14 17 17 17 13 9 8 8 9 12 9 4 2 1 1 3 5 4 5 3 1 2 2 2 3 1 2 1 1 1 0 1 2 1 2 4 5 4 1 2 3 2 1 2 2 2 5 7 7 7 7 8 11 15
9 9 9 9 9 10 9 9 9 8 8 4 2 5 5 2 1 2 2 0 1 2 3 5 3 7 9 3 4 10 6 8 13 10 10 13 16 17 10 5 5 2 3 7 6 3 2 2 1 2 5 6 3 1 1 1 1 3 2 1 2 2 2 2 1 1 2 1 3 3 4 2 3 1 2 1 0 1 3 2 3 6 8 8 8 10 12 15
9 9 9 9 10 11 10 10 10 8 7 3 4 5 4 0 2 2 1 2 1 2 2 2 3 3 3 1 4 7 3 5 11 9 6 5 8 10 8 4 3 1 2 4 2 2 3 3 3 1 4 11 5 2 1 3 2 1 2 2 2 0 1 1 0 1 2 2 4 2 4 2 3 2 2 0 1 3 5 4 4 6 8 9 10 11 12 15
9 9 9 9 10 11 10 10 10 9 7 3 5 4 2 2 2 1 1 2 2 2 1 1 2 2 2 1 4 5 2 3 7 7 3 3 3 4 5 7 5 2 2 3 1 2 2 2 4 1 2 12 10 2 1 1 3 4 1 3 2 2 2 2 2 1 2 1 3 2 2 2 2 1 2 1 2 3 6 7 8 10 11 12 12 12 11 15
9 9 9 9 10 11 10 10 10 9 7 3 4 2 4 3 1 1 1 1 1 1 1 1 1 1 2 3 3 4 2 3 5 5 4 2 4 3 3 8 9 3 1 2 1 3 1 2 6 5 3 9 9 5 3 3 4 3 2 4 3 3 3 3 2 2 3 3 0 1 0 2 2 1 1 2 3 5 8 10 11 13 14 13 13 13 11 15
9 9 8 9 11 11 10 10 9 9 6 2 2 3 4 1 2 1 1 1 1 1 1 1 1 1 4 3 2 2 1 3 3 4 5 4 3 4 3 6 10 6 2 1 1 1 1 1 3 4 3 6 5 3 3 3 2 1 2 3 2 3 2 1 1 1 2 3 2 1 1 2 1 1 0 3 5 7 10 11 12 14 15 14 15 15 13 15
9 10 8 9 11 11 11 10 8 8 6 1 3 4 2 1 1 1 2 1 2 2 2 1 1 2 2 1 2 2 1 2 2 2 4 3 1 2 2 2 6 6 3 2 1 1 1 2 2 1 2 4 5 3 3 3 2 1 1 1 2 2 1 1 2 1 1 2 1 0 2 2 1 1 1 2 4 6 7 9 11 13 14 15 16 16 15 17
9 9 8 10 12 12 11 9 7 7 5 2 4 3 0 1 1 0 2 1 1 1 2 1 1 2 1 0 2 2 2 1 2 2 2 1 1 2 2 1 2 4 4 2 1 1 2 0 2 1 1 3 4 2 3 6 4 2 1 3 2 0 0 1 1 0 1 2 0 0 3 4 2 1 2 2 4 5 4 5 7 9 11 12 14 14 15 18
10 7 7 10 12 12 10 9 7 5 4 5 4 2 1 1 1 0 1 2 1 0 1 1 1 1 1 0 1 3 3 1 1 2 1 0 1 1 2 2 2 4 4 2 0 1 2 1 2 1 1 3 3 2 1 6 9 5 4 3 1 1 1 0 1 1 2 4 2 1 2 3 2 1 1 3 3 3 2 2 4 7 9 11 12 13 16 18
9 6 6 10 11 11 11 8 5 3 4 5 2 1 1 1 1 2 2 2 1 0 1 1 1 1 1 0 1 1 2 2 2 1 1 1 1 0 2 1 1 4 5 2 0 1 1 1 1 1 1 2 2 1 1 3 6 5 4 2 1 1 2 2 1 1 2 3 3 3 2 1 2 1 1 2 2 3 3 2 5 8 10 12 13 16 18 19
9 4 5 10 10 10 10 6 5 5 5 4 1 2 1 2 3 2 2 2 1 1 1 1 1 1 1 0 1 1 1 2 2 1 1 1 1 1 1 1 1 3 4 2 2 0 1 1 1 1 1 2 0 2 3 2 2 1 1 1 2 1 0 0 1 1 2 2 2 2 3 2 2 1 3 2 1 1 3 4 6 9 12 14 16 18 19 19
8 4 5 9 9 9 8 6 9 8 4 2 2 2 1 2 4 3 3 3 2 2 2 2 1 2 2 1 0 0 1 2 2 1 1 1 0 1 1 1 0 2 2 1 2 1 1 1 2 1 1 1 2 2 2 2 3 3 2 2 1 1 1 1 0 1 1 2 1 1 5 4 2 1 2 2 2 2 4 6 8 11 15 17 18 18 18 19
6 3 5 9 8 7 6 6 8 7 3 2 3 3 3 3 4 3 3 3 3 3 3 3 2 2 2 0 1 1 1 1 1 0 1 1 1 0 2 2 1 1 1 1 1 1 1 0 2 1 2 2 2 2 1 2 2 2 2 1 1 1 1 2 2 1 2 0 0 1 3 3 2 1 2 3 3 5 7 9 11 15 18 19 19 19 19 18
5 4 5 8 8 5 3 5 4 4 3 3 4 5 4 3 2 2 2 2 2 1 2 2 1 2 1 0 1 1 1 0 1 1 1 1 1 2 2 2 1 1 1 1 2 2 2 1 1 1 2 1 0 1 1 2 1 2 1 1 1 1 1 2 2 0 1 2 2 1 3 2 2 2 2 4 5 7 9 11 14 17 18 19 20 21 20 19
5 4 5 8 8 4 2 3 1 1 2 3 4 5 4 4 3 2 1 1 1 1 2 2 0 2 2 1 2 2 1 0 1 1 1 1 2 3 3 2 1 1 1 1 2 3 2 2 1 2 1 0 1 1 1 1 1 3 1 1 1 2 3 1 1 1 2 3 3 2 4 2 2 3 3 4 6 9 11 12 13 15 18 20 21 21 20 20
4 2 3 8 9 3 4 5 6 5 2 3 4 3 3 4 4 3 3 3 3 2 2 2 2 4 3 2 3 2 1 1 0 0 0 1 2 2 2 1 1 2 2 3 3 3 1 1 1 1 2 2 2 2 2 1 1 2 1 2 3 4 4 2 1 1 3 2 3 4 5 4 2 3 4 5 7 8 11 13 15 16 19 21 20 20 20 20
2 1 2 6 9 8 10 8 9 9 5 4 4 1 1 3 2 3 5 4 4 5 4 4 4 4 2 1 2 2 1 2 1 1 2 2 1 1 2 1 1 2 3 3 2 2 1 1 2 1 2 3 3 2 1 1 1 3 2 4 6 6 4 2 1 3 3 4 4 8 7 9 10 8 7 8 8 9 12 15 16 17 20 20 19 19 20 20
1 1 1 3 5 9 12 9 8 9 6 4 3 2 3 3 1 2 2 1 3 4 3 3 3 2 2 2 2 1 1 1 1 2 2 1 2 1 2 3 1 2 2 1 0 1 1 1 2 3 5 5 4 3 2 1 5 6 4 6 7 7 7 6 6 4 5 3 4 4 4 7 12 11 10 10 11 11 13 15 16 18 20 19 19 20 20 19
1 1 1 1 1 3 4 4 7 11 8 4 2 3 4 4 3 2 2 2 3 3 2 1 1 2 1 2 2 2 1 1 0 2 1 1 2 2 1 1 2 2 2 2 2 1 2 1 3 3 4 6 7 5 4 4 6 6 7 8 8 9 10 11 10 7 7 6 6 1 2 9 13 13 12 13 14 15 16 17 18 20 19 18 19 20 19 19
3 4 4 3 2 3 4 5 10 12 9 4 3 2 3 5 5 2 2 3 1 2 2 1 2 2 1 1 1 2 2 1 1 1 2 2 2 2 2 1 2 3 2 1 1 2 2 1 2 2 4 6 6 3 3 5 5 6 9 11 10 10 12 13 12 8 9 12 13 10 11 15 16 14 14 17 19 19 19 20 19 19 18 19 20 19 18 20
3 3 5 6 7 8 8 7 7 7 4 2 2 2 3 5 5 3 3 2 1 2 3 1 4 5 2 1 1 0 1 0 4 1 4 3 1 2 2 1 2 2 1 1 1 1 1 0 2 2 3 3 2 1 2 4 5 7 9 9 9 10 10 12 12 9 9 12 13 13 13 14 15 13 11 15 18 17 17 18 18 18 19 21 20 18 18 20
5 4 6 7 6 5 4 3 3 2 1 1 2 3 4 4 6 7 4 1 0 3 3 4 9 7 2 0 1 2 1 2 4 3 4 2 1 2 2 3 5 4 1 1 0 1 1 0 1 1 3 2 1 1 2 3 4 7 10 8 9 9 7 8 9 8 9 8 6 6 7 8 8 7 7 10 12 14 15 14 16 21 22 21 18 17 19 21
7 6 8 6 4 2 4 2 1 1 2 2 3 5 4 6 11 11 4 2 1 2 3 8 12 7 1 1 2 2 4 4 5 7 6 4 5 7 6 6 7 5 3 3 1 2 1 1 1 1 3 1 1 3 4 3 3 3 4 4 9 9 6 5 7 9 11 8 4 4 5 4 5 8 9 9 8 12 17 15 17 23 23 18 16 16 19 20
Wind_Direction
58 59 57 60 63 65 62 56 54 48 46 47 47 44 39 36 33 38 42 44 45 41 42 42 57 103 97 69 58 50 49 50 50 52 49 35 30 41 43 46 51 54 56 60 70 80 94 94 94 103 101 85 69 54 56 56 55 58 55 82 77 61 63 15 27 35 76 102 92 100 99 98 98 83 90 68 66 78 73 72 83 101 108 113 124 138 140 124
55 55 55 59 63 60 51 43 42 37 36 39 41 42 40 37 35 39 45 49 46 42 42 43 54 79 92 86 64 50 43 47 54 50 39 26 31 44 54 57 57 59 58 61 71 81 95 94 95 102 92 74 59 62 67 57 51 49 57 81 67 63 64 17 34 39 69 106 101 91 84 77 81 79 91 83 74 78 79 75 84 95 99 110 120 128 128 108
53 54 56 61 60 52 43 38 36 33 33 35 37 39 38 38 37 40 43 45 41 44 47 46 51 53 64 111 101 59 37 41 48 37 22 19 28 37 54 65 62 67 68 72 78 85 96 97 101 95 84 72 57 69 68 54 49 36 51 84 76 90 79 45 49 56 72 107 106 95 84 69 61 62 89 101 84 66 67 69 76 85 93 106 111 115 110 87
54 57 60 60 54 46 41 39 37 35 37 37 38 38 39 40 40 40 38 37 38 44 50 51 52 47 41 185 178 100 41 40 36 18 13 19 22 32 46 66 67 69 73 80 84 89 96 98 103 94 83 69 59 69 57 45 65 39 46 85 96 109 85 50 53 68 78 95 98 102 92 70 58 57 64 122 92 62 54 53 72 90 91 96 99 98 85 64
59 61 62 56 47 44 41 40 37 34 39 39 39 41 45 43 43 42 36 33 33 39 49 54 56 53 50 61 144 150 41 36 20 11 15 19 22 29 38 59 73 78 77 88 96 93 98 103 103 89 76 61 57 69 54 51 84 72 52 75 82 96 91 53 52 81 89 93 89 86 79 79 76 56 48 70 84 70 59 57 79 92 90 90 87 77 63 43
64 65 61 54 48 45 42 38 34 33 36 37 37 44 55 51 49 45 38 35 30 29 36 54 67 60 57 63 81 87 80 72 7 14 18 19 25 27 31 47 61 72 73 94 113 103 107 105 98 85 74 68 59 70 67 52 86 96 70 67 66 76 90 72 68 88 95 89 79 80 86 99 97 67 52 68 74 81 88 86 89 87 85 79 67 57 48 39
67 67 63 56 50 46 41 35 30 31 34 39 41 51 66 63 58 48 37 36 34 36 39 55 97 82 68 65 68 72 71 62 25 22 21 22 30 28 28 40 55 63 76 101 108 106 105 99 94 88 85 80 70 80 81 68 77 97 93 75 73 76 84 80 80 87 89 88 86 99 102 91 93 86 67 69 72 86 90 86 82 74 69 63 53 49 52 57
71 72 65 55 49 43 39 35 33 33 36 47 50 60 79 74 65 55 41 36 38 45 46 57 86 109 89 62 58 60 53 40 36 31 25 31 37 36 35 48 74 83 93 101 102 102 100 97 94 87 83 84 90 94 90 77 66 81 101 98 88 81 82 85 88 91 90 91 95 97 89 82 93 95 76 69 78 88 83 78 72 61 54 54 53 54 61 66
74 73 64 51 46 41 35 34 35 37 44 52 54 67 90 81 65 53 45 41 44 53 56 61 68 77 93 117 69 56 37 31 44 38 35 42 45 48 49 56 69 86 96 98 106 109 108 103 99 105 105 97 98 99 96 84 63 86 108 107 98 88 85 89 92 92 87 87 97 95 88 92 101 91 73 68 84 85 73 67 65 58 51 52 55 56 62 61
70 68 58 45 42 41 34 32 33 37 49 55 53 61 85 78 57 50 52 53 55 63 67 69 70 71 82 90 82 67 31 46 56 47 49 52 55 57 56 58 62 70 85 93 100 101 106 109 106 108 105 92 83 71 74 102 117 116 108 99 92 85 74 74 88 86 78 74 78 94 92 87 92 89 77 66 82 78 54 49 59 60 51 50 53 51 52 48
60 58 50 38 36 41 37 32 31 36 48 57 52 54 69 67 50 50 62 63 61 62 62 67 73 68 67 72 73 67 37 56 64 59 59 57 57 57 57 60 66 71 83 94 100 103 105 108 104 95 87 91 89 74 84 109 123 122 110 97 89 81 62 44 53 52 59 67 57 101 100 72 52 60 57 16 67 62 35 37 48 51 42 41 41 36 40 35
49 47 41 32 31 39 40 34 30 33 43 57 55 54 67 74 61 57 67 75 62 55 51 52 65 78 72 62 59 54 42 54 69 67 64 60 58 59 60 62 68 73 82 95 101 108 112 114 104 97 102 110 100 87 105 115 119 120 107 99 96 87 55 28 22 12 14 52 17 153 124 61 42 40 17 345 64 46 29 34 30 35 30 27 26 23 23 18
38 38 34 30 28 32 41 39 32 31 38 58 65 64 74 76 67 64 64 64 52 35 36 50 60 79 83 64 48 50 49 45 69 79 72 69 66 66 67 67 70 73 78 85 89 93 105 111 107 108 111 109 103 111 123 120 111 104 63 85 119 102 51 22 13 1 14 45 8 244 169 59 51 31 11 345 51 32 27 32 14 16 13 9 7 3 1 357
29 29 28 26 24 25 37 47 41 34 36 64 85 80 91 86 72 68 66 61 57 48 34 54 56 62 74 72 47 48 52 47 79 109 84 79 76 72 73 75 76 76 79 83 87 90 96 102 102 98 93 93 106 115 115 101 81 95 33 42 45 91 59 34 18 6 22 25 3 283 202 83 73 24 18 21 56 42 32 28 8 6 3 1 356 351 352 348
22 22 22 20 21 23 34 56 55 44 44 65 111 102 100 98 77 64 65 64 62 60 57 67 74 63 70 68 41 43 58 66 73 86 86 91 86 79 80 81 81 81 83 83 87 89 93 98 91 82 80 93 109 117 113 100 69 30 268 85 27 45 94 56 30 20 11 329 350 316 185 106 77 23 24 74 62 38 27 23 9 11 8 6 3 357 355 347
18 17 18 17 19 23 39 69 74 61 57 63 100 132 125 116 67 48 67 71 66 63 62 67 69 68 69 56 35 40 49 52 49 52 66 89 87 86 89 85 83 83 84 82 83 87 94 91 78 66 65 80 86 102 116 108 81 25 22 76 22 36 95 119 56 25 1 309 353 3 125 118 64 23 27 69 59 4 24 28 23 31 32 28 26 20 13 4
20 20 19 18 22 25 44 83 97 80 72 69 72 89 124 165 325 352 67 80 65 50 54 66 69 66 62 42 30 34 35 36 36 49 59 69 90 97 102 99 85 81 84 81 77 81 83 78 72 65 57 50 10 304 132 70 61 44 49 91 47 33 43 358 94 19 2 12 43 45 86 90 45 32 38 70 66 33 42 47 46 48 47 44 42 38 33 26
26 25 24 24 25 27 45 91 122 105 88 80 75 74 74 73 66 68 79 91 121 43 46 49 55 75 50 26 25 29 33 35 33 50 58 58 74 98 110 132 97 76 80 73 54 58 72 70 78 92 47 34 19 2 73 65 42 38 40 99 98 67 57 37 47 1 360 37 64 65 86 79 71 76 59 64 72 75 68 65 62 55 51 48 44 41 38 34
32 31 33 32 29 33 46 80 129 138 115 98 85 76 75 75 74 73 71 68 68 68 47 40 49 98 48 22 32 40 40 41 38 46 72 63 66 77 86 92 96 92 83 65 31 37 63 67 58 69 31 18 14 10 51 65 25 52 48 66 97 90 75 45 22 358 349 35 55 56 84 87 84 79 57 59 77 84 82 74 64 53 48 44 40 39 35 34
34 37 39 38 37 41 50 64 105 154 162 164 135 92 80 71 65 61 62 65 68 71 74 60 61 83 62 35 42 54 48 46 46 49 61 75 68 70 75 80 79 75 68 43 15 37 63 73 48 35 12 351 345 350 32 67 31 86 102 89 89 94 88 65 13 15 327 11 55 52 82 87 75 64 48 51 92 87 77 73 59 47 44 42 39 35 30 28
34 37 39 40 41 45 54 60 74 119 164 190 191 181 69 65 82 80 70 68 70 70 66 61 60 65 55 39 40 51 54 51 52 53 50 59 84 48 44 60 70 60 41 10 74 50 56 69 47 8 345 327 337 328 187 141 105 91 111 111 99 86 84 75 359 19 320 263 70 58 89 83 63 60 54 49 92 79 59 59 52 46 44 41 36 28 25 20
33 34 37 41 41 47 57 69 77 88 123 161 172 147 110 101 105 101 91 83 71 64 58 52 51 50 48 42 37 41 48 44 40 41 44 57 70 70 59 58 65 58 16 354 117 70 59 61 30 1 324 267 31 128 165 99 103 124 155 155 106 84 106 124 42 26 351 283 104 168 126 90 67 55 57 45 68 65 49 64 63 55 43 33 27 19 14 8
32 33 36 39 42 50 58 76 83 83 98 121 135 126 112 105 104 94 91 96 75 54 47 44 42 39 36 35 31 38 47 41 22 21 28 50 65 68 67 60 59 61 38 26 52 76 75 52 6 358 313 229 99 80 168 114 83 64 57 200 108 99 250 117 73 33 21 32 89 171 176 117 133 129 100 66 53 55 63 89 86 70 46 22 9 1 355 350
30 32 35 35 39 48 52 65 78 88 99 114 129 128 119 108 105 97 86 94 89 45 35 35 31 30 27 22 21 39 49 47 26 18 20 36 59 63 64 60 54 62 55 52 64 74 79 34 347 335 322 305 98 66 25 263 82 55 38 30 79 86 345 23 49 17 69 72 73 212 226 172 173 184 150 121 154 203 133 126 128 78 37 11 357 346 339 337
30 31 34 34 39 46 52 64 79 107 112 125 144 138 134 120 96 87 83 97 95 23 17 23 23 21 16 14 23 61 54 47 31 20 22 30 42 69 70 51 40 60 70 65 73 74 62 13 336 308 38 14 96 62 17 327 134 85 46 26 18 40 359 351 320 247 201 113 65 292 270 155 157 198 195 166 201 200 198 221 209 191 342 350 344 337 337 335
32 32 33 34 41 47 58 68 73 95 107 130 167 165 165 165 73 53 93 105 66 358 359 12 13 15 13 7 8 139 77 44 29 25 28 30 35 81 83 34 43 93 158 89 88 86 52 19 1 198 229 358 80 70 24 333 302 98 55 30 333 332 301 251 204 237 261 72 64 299 311 352 158 195 196 183 228 222 217 231 225 230 266 303 312 321 335 336
30 33 33 35 40 45 57 65 63 73 100 141 175 192 208 224 236 229 175 67 44 351 357 7 4 17 19 13 19 98 76 3 18 28 34 38 43 72 88 29 40 84 151 196 100 74 20 19 32 25 310 339 49 52 19 339 322 56 52 312 264 250 235 197 196 225 29 85 175 140 337 294 220 159 163 177 248 239 231 233 229 237 259 291 309 317 325 330
25 28 29 35 38 41 50 55 55 53 58 156 195 197 210 220 212 215 182 71 17 348 3 8 10 20 24 29 41 64 52 20 18 17 28 44 49 63 76 56 67 86 40 240 114 83 9 22 26 7 2 28 34 14 350 330 331 60 50 319 284 171 171 173 200 171 68 243 204 67 7 292 236 106 142 202 251 251 244 234 228 233 246 275 315 332 336 339
22 24 25 31 31 32 38 37 35 29 23 12 194 184 192 182 178 197 94 99 344 359 8 354 351 359 1 36 42 46 46 40 37 21 34 51 52 66 81 70 78 82 52 42 92 117 80 38 16 357 13 15 345 335 331 324 353 71 96 99 104 106 116 182 220 146 146 263 226 48 12 327 333 121 163 203 248 264 260 231 223 231 241 259 296 327 342 347
20 22 26 28 26 26 27 26 24 19 12 11 145 158 155 140 156 130 57 86 351 355 344 358 353 349 360 45 39 32 38 34 24 28 49 54 53 67 85 77 61 74 67 60 74 99 112 110 26 30 25 332 302 320 340 311 354 132 162 146 139 146 137 167 6 156 215 241 97 60 21 345 321 120 157 187 273 303 300 232 219 230 244 257 278 307 330 339
19 22 24 26 26 23 23 20 18 17 14 20 138 146 141 126 109 97 74 344 11 3 348 16 11 356 14 65 35 17 28 29 15 18 42 41 41 45 52 51 29 58 109 69 71 93 99 91 51 32 16 347 290 220 96 164 174 165 191 229 182 169 172 185 159 189 268 356 104 70 20 301 268 57 115 182 353 276 271 268 238 237 250 263 276 296 320 334
18 19 19 23 24 18 16 14 14 16 14 34 144 154 151 76 19 81 2 308 341 12 15 17 2 3 7 62 36 6 352 20 14 19 32 20 33 38 34 23 344 302 76 39 63 100 86 67 6 269 22 8 342 233 153 161 190 203 215 244 238 208 163 203 82 196 293 18 112 72 7 271 252 45 77 94 262 243 244 261 266 260 264 271 280 294 319 338
17 16 15 19 21 14 11 8 9 12 14 49 153 157 107 71 59 91 295 329 4 4 41 34 3 355 303 355 31 357 351 13 359 14 22 358 50 70 68 49 1 284 32 20 347 23 127 136 6 356 37 7 1 355 40 33 352 2 337 303 330 14 17 356 342 286 301 14 116 95 349 288 269 97 101 36 339 256 238 246 255 260 267 273 280 288 311 340
13 13 12 14 14 9 6 5 3 4 12 59 155 129 58 68 115 115 234 284 327 326 30 14 318 4 25 48 18 324 29 56 351 1 6 359 44 48 58 42 19 352 14 31 55 9 16 141 19 16 347 355 13 30 358 324 337 4 315 315 11 44 1 345 327 321 318 313 316 137 246 306 329 70 102 329 311 262 242 248 257 263 268 272 280 283 297 333
10 10 9 11 10 4 2 1 358 1 7 54 118 67 63 111 203 157 159 205 194 187 81 17 292 45 43 43 22 324 2 45 15 13 19 19 36 22 5 7 8 5 331 359 64 351 336 83 35 25 5 0 18 23 335 298 305 30 256 290 27 29 339 4 28 4 318 299 292 198 247 280 301 76 45 283 277 259 251 255 262 270 276 275 280 284 290 321
7 7 10 8 3 1 1 357 353 0 0 50 75 54 78 154 204 146 110 120 140 160 157 119 7 55 62 27 41 33 350 17 13 10 35 40 47 31 16 349 360 4 357 9 41 316 321 93 74 31 54 33 17 12 3 345 305 276 327 18 47 2 315 115 87 105 202 262 286 310 291 276 217 146 165 266 262 250 253 260 264 276 286 285 288 293 297 314
1 5 11 5 2 2 360 356 356 1 4 71 79 67 110 33 26 71 42 65 127 127 146 143 6 21 77 19 13 5 340 358 355 3 63 59 56 43 19 9 1 358 360 349 69 33 314 127 91 357 99 46 9 348 37 24 360 298 4 76 106 293 167 183 293 240 244 269 250 6 303 300 321 42 151 214 242 240 244 258 270 290 306 305 305 310 311 318
358 3 8 4 4 4 1 2 4 5 39 72 80 97 146 59 36 124 67 78 118 102 122 124 19 348 248 147 32 334 319 318 14 37 76 74 64 61 334 3 25 3 357 316 226 70 298 265 101 99 291 24 356 269 201 46 42 48 87 110 170 304 15 331 319 358 328 308 296 288 288 271 276 6 142 204 237 248 234 248 294 317 326 322 318 318 318 322
355 359 8 4 4 7 8 10 7 17 71 73 94 154 125 105 107 113 115 89 77 119 111 105 64 21 320 44 86 300 318 17 59 65 77 35 51 45 312 343 14 359 359 339 318 100 284 299 107 140 272 317 336 320 261 58 61 77 118 126 8 348 342 355 18 321 291 307 314 327 342 222 197 230 239 227 255 264 254 280 319 324 322 318 316 316 319 324
355 355 356 358 3 8 9 20 36 48 70 69 120 149 91 143 131 100 105 96 61 25 69 141 160 124 108 275 294 320 12 42 71 66 40 36 55 125 53 328 325 351 5 61 93 58 269 311 354 121 185 262 309 41 6 4 27 45 99 52 63 88 259 204 80 3 298 297 299 310 317 338 87 154 234 252 327 299 280 291 301 308 313 314 313 315 319 325
358 358 343 353 2 4 6 35 46 51 81 83 86 116 91 130 128 98 94 99 77 66 84 102 108 124 145 166 259 164 68 59 79 69 84 115 280 80 108 139 5 335 317 119 94 351 309 296 315 318 177 157 70 46 358 348 339 325 349 27 26 358 268 246 353 65 353 294 265 289 299 304 48 95 247 281 335 296 278 275 281 297 308 312 313 317 322 325
4 357 340 352 354 352 18 51 43 45 88 94 81 107 112 113 120 113 104 97 83 79 89 85 62 85 142 102 49 154 141 85 100 78 98 112 3 39 136 146 134 319 293 123 93 36 37 300 286 310 50 51 48 58 337 317 307 290 317 8 358 278 269 299 313 143 150 266 7 316 284 277 89 103 248 264 274 273 272 272 282 297 306 311 317 324 327 327
2 352 340 351 348 343 47 73 42 35 62 83 86 94 100 95 104 127 114 80 86 91 84 81 56 72 112 255 106 142 210 134 105 77 98 120 135 157 171 179 191 204 189 151 144 165 157 49 304 292 89 81 102 138 190 309 285 247 248 102 239 289 353 342 337 28 193 195 170 212 258 253 104 133 240 259 269 275 280 285 291 299 308 317 325 329 330 332
353 350 348 358 349 329 93 103 116 86 79 98 86 78 84 73 62 98 125 73 91 126 104 102 110 87 91 109 108 113 243 242 18 17 87 162 158 158 177 188 187 206 201 157 150 179 171 100 341 309 15 113 208 176 203 262 246 248 225 127 185 104 86 101 130 87 251 212 182 229 261 275 111 153 216 254 270 282 290 299 306 308 314 323 328 330 332 335
351 335 356 12 6 16 106 120 135 134 137 119 98 81 86 73 51 69 95 94 92 106 115 112 119 109 103 107 97 77 340 351 19 343 76 161 158 152 173 190 209 205 151 126 151 181 169 119 173 309 342 329 329 324 318 42 168 232 176 186 195 162 163 198 139 194 242 189 166 216 247 290 295 224 246 270 278 295 309 318 323 322 323 326 327 330 334 337
23 10 354 9 17 53 85 102 122 127 148 147 115 114 114 89 68 83 89 94 99 97 95 107 128 119 103 115 100 80 12 13 61 143 160 177 161 154 181 161 158 164 128 108 137 162 126 118 139 173 250 285 327 331 338 40 234 231 210 211 202 187 197 199 165 221 193 146 199 231 251 288 291 285 299 307 303 309 317 321 324 323 324 327 327 331 336 338
51 64 345 357 21 58 75 78 96 114 140 160 137 148 136 112 119 114 84 91 135 124 94 96 154 166 146 151 132 120 165 352 62 120 139 161 113 100 177 161 142 177 168 165 218 143 178 176 132 164 228 253 276 258 183 200 248 244 234 221 203 190 192 198 217 208 134 144 249 233 211 264 283 292 302 305 307 312 312 314 315 315 319 324 328 332 337 339
83 138 142 123 25 51 65 65 98 109 113 116 115 136 138 136 159 159 132 127 151 165 138 104 215 237 174 158 153 146 165 294 155 139 133 159 130 118 145 181 235 226 206 222 263 306 271 216 146 174 239 258 263 251 192 206 249 251 243 235 214 194 191 206 226 203 166 218 261 245 206 264 280 290 294 296 300 304 303 305 310 315 321 326 328 331 335 338
110 113 126 134 115 110 113 118 122 113 100 89 106 149 164 159 163 169 141 130 139 225 218 201 189 163 123 156 151 147 179 225 336 159 163 161 164 162 152 197 232 228 221 241 312 315 275 202 145 188 265 272 271 272 192 211 248 255 239 233 225 213 205 216 233 217 205 243 265 277 283 283 280 276 280 289 297 301 301 306 313 319 324 327 327 330 334 337
164 141 140 127 102 101 112 124 127 111 87 82 119 164 171 160 161 165 160 152 147 184 217 219 139 128 105 173 157 77 199 161 11 18 168 160 164 199 196 150 151 173 257 336 359 317 266 69 122 181 268 280 286 45 167 206 242 266 260 241 222 220 219 229 242 233 225 249 265 273 277 278 274 270 274 288 299 304 302 308 317 320 324 327 327 331 334 335
192 183 166 138 105 102 123 133 128 107 114 196 159 159 176 184 168 147 128 358 99 162 205 164 137 127 51 61 120 18 53 76 40 69 154 161 115 149 160 147 148 154 176 186 316 304 265 229 121 229 298 301 173 210 234 226 238 268 278 253 205 199 209 225 230 217 212 224 241 260 262 262 272 286 293 291 299 304 302 310 320 320 325 328 325 328 332 332
192 184 179 157 120 144 166 151 109 138 172 184 156 157 174 177 165 149 112 1 177 142 175 159 144 133 73 138 146 107 114 109 85 94 110 104 101 102 105 134 151 157 168 163 73 349 274 237 177 276 295 269 250 277 274 267 252 256 279 218 182 186 204 228 237 222 214 209 197 222 243 275 307 310 306 298 300 309 309 312 317 318 323 327 323 325 329 329